Location: Squirrel Cove
(50.1074°N, 124.9139°W)
Time: 13:46:56
(UTC-07:00)

PCSat - Pass Details

Date: 24 May 2022
Orbit: 784 x 795 km, 67.1° (Epoch: 26 June)

Event Time Altitude Azimuth Distance (km) Brightness Sun altitude
Rises 03:08:48 0° 323° (NW) 3,307 13.1 -14.9°
Reaches altitude 10° 03:11:13 10° 323° (NW) 2,373 12.4 -14.7°
Maximum altitude 03:16:41 85° 237° (WSW) 805 9.5 -14.3°
Drops below altitude 10° 03:22:06 10° 148° (SSE) 2,357 11.8 -13.8°
Sets 03:24:30 0° 148° (SSE) 3,281 12.5 -13.6°
